Temp
31 27 25 27 29 31 29 29 29 29 31 30 30 29 29 28 27 26 23 27 28 27 27 26 26 25 24 23 23 22 22 21 21 20 21 21 20 19 18 17 18 18 18 18
28 26 29 31 32 32 30 29 29 30 31 30 29 29 31 27 26 25 26 27 29 28 27 26 26 25 24 24 23 22 22 21 20 20 20 20 20 20 19 18 17 18 18 18
27 29 32 32 31 31 31 28 29 29 31 31 28 30 29 27 28 27 26 30 30 28 27 27 26 25 25 24 23 22 22 22 21 20 20 20 21 20 19 19 18 18 19 18
29 31 32 32 31 31 30 32 32 32 28 27 30 26 26 26 27 27 26 26 29 28 27 27 26 25 25 24 23 23 23 22 21 20 20 20 20 20 19 19 18 18 18 18
28 30 30 31 32 33 30 32 31 32 29 31 29 26 27 24 26 28 28 30 27 28 28 27 26 26 25 24 24 23 23 22 21 20 20 20 19 18 18 18 18 18 18 17
29 33 32 31 33 33 32 31 30 30 27 24 27 27 25 24 25 27 26 30 30 28 27 27 26 26 25 24 23 23 23 21 20 21 19 19 18 18 18 18 18 18 17 17
28 30 32 33 31 32 31 29 23 24 23 23 25 26 25 28 28 29 29 30 30 28 27 26 26 26 25 24 23 23 23 21 19 19 19 19 18 18 18 18 17 17 17 16
25 25 30 32 30 28 27 26 22 25 24 25 28 28 28 32 32 33 33 33 31 26 24 22 23 25 25 23 23 22 23 20 19 18 19 18 18 18 18 18 17 17 17 17
26 27 32 32 32 31 28 27 27 26 27 25 24 26 28 25 22 29 33 32 31 26 28 27 23 25 24 24 22 21 22 20 18 18 18 17 18 18 17 16 17 16 17 17
27 25 29 32 32 31 29 29 27 23 25 25 26 26 24 23 23 26 23 30 31 29 26 25 26 25 24 24 22 22 21 20 18 18 17 17 18 18 16 15 16 16 16 16
27 25 28 29 29 29 28 27 28 25 24 23 22 22 22 21 20 21 23 23 30 30 28 27 26 25 25 23 22 22 21 21 19 18 17 17 17 18 15 15 15 16 15 14
28 25 24 27 30 31 30 29 26 22 24 23 22 22 24 20 20 23 24 20 30 30 29 28 27 25 24 23 22 22 22 22 20 18 17 17 17 17 15 15 15 15 14 14
28 23 24 24 26 29 29 29 29 25 23 24 23 23 22 18 15 17 19 20 29 29 28 28 26 25 24 24 22 21 22 21 20 18 17 18 17 16 15 15 15 14 14 15
28 25 24 22 25 29 28 29 29 26 23 24 24 22 20 20 16 14 17 27 28 27 27 26 25 24 23 23 22 22 21 21 21 18 18 17 17 16 16 15 15 15 15 15
26 25 26 25 27 29 29 29 29 28 25 26 23 22 20 19 20 20 27 27 27 27 26 25 24 24 22 22 23 21 21 21 21 19 17 17 16 16 16 15 15 15 14 15
24 23 27 25 27 28 28 29 29 29 27 26 24 22 21 20 25 27 27 26 26 27 25 25 24 23 22 22 21 21 20 20 20 19 17 17 17 16 16 16 16 15 15 15
23 22 23 23 25 26 24 27 28 28 27 27 25 24 17 17 21 25 26 26 26 26 25 25 24 23 23 21 20 21 20 20 20 19 17 17 17 16 16 16 16 16 15 15
22 22 22 22 24 22 25 27 29 28 28 26 25 21 20 19 22 25 26 25 26 26 25 24 24 23 23 22 20 20 20 19 19 18 18 18 17 17 17 17 16 16 16 15
22 22 22 21 21 23 26 27 27 27 25 26 23 22 23 24 24 22 24 24 24 24 24 23 23 22 22 22 22 22 20 19 19 18 17 17 17 17 17 17 17 16 15 15
23 20 21 20 21 21 24 24 26 25 22 23 23 22 20 21 20 21 22 23 24 24 23 23 21 21 21 21 21 21 20 19 18 18 18 18 18 18 17 17 17 16 16 15
21 20 20 20 21 23 20 21 25 24 20 20 20 21 19 21 24 22 22 23 23 22 22 22 21 20 20 20 20 20 19 19 19 18 18 18 18 17 17 17 16 16 16 15
21 19 20 20 21 21 19 22 22 16 16 20 21 20 18 20 22 22 22 21 20 20 19 19 19 20 20 20 19 20 19 19 18 18 18 17 17 17 17 16 16 16 15 15
16 16 16 17 17 19 20 18 17 15 18 18 17 17 15 17 18 20 19 18 18 18 18 18 17 18 19 19 19 19 18 18 18 18 17 17 16 16 16 15 15 15 15 15
17 17 17 16 17 17 14 16 16 19 21 21 16 16 15 17 19 20 19 19 18 18 18 18 18 18 17 17 18 18 19 19 18 17 18 18 16 16 15 15 15 15 15 15
18 17 15 16 13 16 17 17 12 13 15 21 19 17 16 15 20 20 19 18 18 18 17 16 17 17 17 17 17 17 18 17 17 17 15 15 15 15 15 15 15 15 14 14
19 15 14 15 11 11 12 14 17 13 11 18 21 23 21 21 21 20 18 18 17 17 17 16 16 15 16 17 16 17 17 17 16 14 14 13 13 13 13 14 14 14 14 14
Height
1497 1507 1516 1506 1498 1498 1502 1506 1514 1509 1485 1499 1495 1492 1487 1492 1497 1500 1517 1519 1522 1527 1523 1524 1526 1529 1531 1531 1533 1535 1538 1539 1540 1540 1540 1539 1538 1538 1541 1540 1540 1541 1543 1546
1502 1511 1495 1491 1490 1492 1500 1509 1516 1504 1493 1500 1492 1490 1477 1491 1505 1516 1511 1504 1501 1514 1518 1520 1524 1526 1527 1528 1529 1532 1536 1540 1539 1538 1538 1538 1538 1538 1539 1540 1540 1540 1541 1544
1505 1493 1484 1486 1489 1492 1494 1507 1505 1503 1494 1491 1494 1494 1493 1496 1481 1490 1498 1493 1494 1501 1510 1513 1518 1521 1523 1524 1526 1530 1534 1535 1536 1536 1537 1538 1538 1539 1540 1541 1540 1539 1540 1541
1492 1480 1480 1482 1486 1484 1500 1482 1483 1487 1506 1523 1483 1531 1501 1493 1490 1490 1493 1492 1488 1494 1505 1511 1517 1522 1521 1521 1524 1528 1531 1533 1535 1534 1536 1538 1538 1539 1540 1542 1543 1542 1542 1541
1493 1483 1483 1484 1481 1476 1489 1477 1482 1480 1492 1488 1493 1517 1506 1496 1495 1483 1481 1485 1490 1492 1501 1509 1513 1517 1520 1522 1521 1526 1529 1530 1532 1534 1534 1536 1538 1540 1540 1542 1543 1544 1542 1541
1482 1473 1475 1476 1472 1473 1475 1480 1483 1483 1498 1530 1506 1513 1515 1503 1488 1480 1479 1479 1482 1493 1501 1507 1511 1514 1516 1520 1522 1525 1528 1530 1532 1533 1535 1535 1537 1538 1540 1541 1542 1543 1543 1541
1485 1478 1470 1471 1478 1473 1477 1492 1534 1536 1539 1544 1503 1507 1503 1478 1477 1475 1478 1476 1484 1494 1504 1511 1511 1513 1514 1518 1522 1526 1528 1528 1532 1533 1533 1535 1536 1536 1538 1540 1541 1541 1541 1542
1508 1511 1476 1469 1476 1487 1487 1495 1532 1543 1544 1530 1494 1512 1496 1474 1478 1476 1476 1478 1487 1499 1502 1513 1514 1513 1515 1519 1522 1524 1528 1529 1531 1532 1532 1534 1536 1537 1535 1536 1538 1543 1542 1541
1499 1496 1463 1464 1464 1470 1485 1496 1481 1507 1500 1523 1513 1498 1486 1480 1489 1482 1478 1479 1486 1491 1495 1499 1512 1515 1517 1520 1521 1522 1525 1527 1531 1534 1533 1533 1535 1534 1534 1537 1537 1542 1542 1541
1478 1501 1468 1458 1459 1463 1472 1471 1502 1509 1531 1537 1515 1510 1508 1496 1492 1481 1488 1482 1485 1492 1498 1504 1508 1511 1515 1517 1517 1517 1524 1527 1530 1531 1531 1533 1535 1534 1531 1535 1539 1543 1542 1540
1468 1484 1476 1465 1468 1476 1477 1485 1482 1492 1505 1531 1539 1522 1486 1489 1485 1482 1497 1497 1485 1492 1499 1502 1504 1507 1511 1512 1515 1522 1527 1528 1528 1530 1531 1533 1534 1535 1533 1536 1540 1542 1542 1541
1459 1475 1493 1480 1460 1457 1460 1471 1479 1513 1515 1509 1517 1511 1477 1499 1497 1497 1489 1506 1489 1490 1497 1498 1502 1499 1507 1515 1517 1519 1523 1525 1528 1530 1532 1530 1532 1535 1537 1540 1541 1542 1542 1542
1460 1479 1500 1494 1477 1460 1465 1464 1466 1478 1488 1502 1518 1510 1499 1503 1505 1507 1513 1513 1491 1490 1498 1499 1502 1498 1506 1512 1515 1517 1521 1525 1526 1530 1533 1532 1533 1536 1538 1540 1540 1541 1542 1542
1459 1473 1489 1510 1491 1469 1480 1467 1463 1478 1503 1498 1493 1499 1505 1503 1503 1507 1506 1493 1490 1498 1500 1502 1504 1499 1507 1513 1518 1521 1524 1524 1525 1528 1531 1533 1534 1536 1538 1539 1540 1541 1542 1543
1461 1481 1474 1475 1467 1466 1469 1468 1466 1473 1480 1491 1491 1489 1497 1490 1487 1504 1485 1485 1491 1498 1504 1497 1501 1503 1510 1515 1519 1521 1521 1522 1525 1528 1531 1533 1535 1537 1538 1539 1540 1540 1543 1543
1465 1483 1471 1481 1469 1468 1471 1462 1463 1463 1468 1478 1485 1485 1478 1481 1475 1480 1479 1489 1496 1502 1491 1495 1502 1506 1507 1513 1516 1519 1523 1523 1525 1528 1531 1532 1534 1536 1537 1538 1540 1542 1543 1543
1477 1481 1485 1496 1476 1476 1489 1469 1462 1461 1461 1461 1486 1474 1473 1477 1473 1477 1484 1488 1488 1489 1490 1499 1502 1505 1508 1512 1515 1518 1524 1523 1525 1527 1530 1531 1533 1535 1539 1540 1539 1541 1542 1542
1480 1483 1482 1496 1484 1511 1473 1456 1453 1456 1450 1447 1454 1461 1464 1469 1471 1473 1478 1483 1486 1488 1492 1498 1502 1506 1508 1509 1513 1518 1522 1523 1524 1526 1529 1532 1534 1535 1537 1538 1538 1537 1538 1541
1473 1480 1491 1501 1500 1482 1470 1459 1460 1458 1454 1444 1449 1460 1464 1471 1472 1480 1479 1480 1488 1491 1493 1496 1501 1505 1508 1510 1511 1516 1519 1522 1523 1524 1527 1530 1532 1534 1535 1536 1536 1536 1537 1539
1469 1472 1487 1495 1505 1506 1473 1461 1453 1445 1473 1458 1449 1456 1463 1465 1480 1480 1482 1480 1482 1488 1491 1493 1499 1503 1507 1512 1514 1515 1517 1521 1522 1524 1526 1529 1531 1532 1533 1533 1534 1534 1535 1536
1479 1480 1488 1491 1493 1478 1471 1464 1452 1471 1490 1469 1470 1473 1461 1459 1457 1466 1475 1479 1490 1491 1489 1489 1493 1499 1505 1510 1515 1515 1514 1517 1521 1523 1524 1527 1528 1530 1531 1531 1531 1533 1533 1534
1480 1488 1484 1481 1485 1493 1475 1464 1470 1484 1476 1467 1464 1480 1486 1480 1477 1470 1474 1480 1488 1492 1490 1488 1491 1496 1501 1507 1510 1512 1513 1516 1520 1521 1521 1523 1524 1526 1527 1528 1528 1529 1531 1531
1493 1490 1494 1490 1491 1481 1481 1481 1477 1483 1472 1467 1472 1482 1491 1498 1491 1483 1488 1485 1487 1490 1494 1490 1493 1495 1499 1503 1506 1508 1510 1514 1514 1515 1518 1520 1521 1522 1523 1524 1524 1526 1526 1528
1487 1485 1488 1489 1487 1488 1486 1485 1483 1476 1476 1471 1469 1479 1494 1494 1481 1484 1484 1486 1491 1490 1491 1490 1492 1495 1500 1502 1503 1505 1507 1509 1512 1513 1514 1516 1517 1518 1518 1520 1520 1520 1521 1522
1489 1488 1493 1490 1491 1485 1483 1486 1490 1486 1491 1476 1469 1474 1470 1478 1486 1479 1486 1493 1489 1489 1491 1491 1492 1496 1498 1500 1500 1503 1504 1505 1507 1508 1510 1513 1513 1514 1515 1516 1516 1517 1517 1516
1489 1493 1497 1495 1499 1498 1494 1488 1486 1486 1491 1491 1471 1471 1476 1475 1477 1483 1488 1497 1487 1486 1487 1493 1497 1498 1496 1499 1503 1503 1503 1503 1502 1505 1508 1510 1510 1510 1511 1511 1511 1511 1511 1512
Wind_Speed
15 4 7 11 12 6 8 10 11 7 17 6 15 14 15 24 24 19 12 19 20 25 26 25 21 20 19 16 17 15 12 12 8 8 5 7 9 6 7 7 6 5 5 5
7 7 13 13 16 12 7 8 9 13 23 4 15 17 10 17 14 14 27 39 34 28 31 28 25 24 23 19 16 15 10 8 7 9 5 4 5 4 6 6 7 7 5 2
9 14 15 16 12 12 6 15 9 18 8 18 7 8 8 1 25 32 44 45 22 39 37 34 32 28 23 21 18 15 10 8 8 12 6 5 5 1 2 4 5 5 6 6
9 17 13 10 10 10 5 7 10 11 15 9 6 4 4 7 4 15 28 26 31 41 40 38 34 29 24 20 16 13 9 10 10 10 7 5 7 4 0 4 3 3 3 3
10 10 9 7 7 4 5 10 8 6 11 2 5 4 2 4 5 6 6 13 36 38 44 40 35 28 23 20 18 12 9 10 11 7 8 4 6 2 3 2 3 1 5 2
9 24 5 9 8 7 8 8 7 5 2 4 6 2 4 6 9 5 14 23 39 41 43 38 30 24 22 21 19 12 10 9 7 8 9 5 7 4 5 3 5 3 2 4
10 10 8 6 6 5 5 2 3 3 4 5 6 7 7 3 5 7 11 24 32 37 38 27 24 25 24 23 20 11 8 7 8 5 9 7 7 5 3 2 2 5 2 3
7 8 8 8 9 9 9 8 6 6 3 4 8 3 3 2 7 8 14 20 30 37 38 20 28 28 25 20 13 8 4 4 7 4 4 8 6 7 8 9 5 8 6 7
3 9 8 13 8 7 10 4 10 2 3 2 4 6 3 17 14 9 6 17 28 46 32 23 30 27 22 15 12 7 5 3 3 1 4 8 7 10 8 5 7 8 11 8
10 6 10 13 12 10 8 5 2 3 3 5 1 0 4 4 4 11 22 13 22 31 37 37 30 24 16 12 12 10 5 3 7 5 7 7 4 18 9 7 7 8 6 3
10 7 16 6 5 7 2 5 3 3 4 5 3 6 7 10 8 15 12 28 18 23 30 26 23 20 15 17 12 6 7 5 4 6 4 6 8 5 12 8 4 3 4 6
8 7 6 8 9 8 8 6 7 5 9 2 5 6 9 8 14 12 23 45 13 12 12 14 17 22 22 17 13 9 5 1 3 5 5 7 5 9 12 6 2 2 8 7
3 3 0 10 9 7 7 8 5 3 3 4 5 3 14 25 25 21 32 44 15 16 17 14 26 27 25 16 15 10 1 4 4 5 2 12 16 10 9 4 3 7 6 4
5 2 4 7 8 2 8 7 4 2 3 5 6 8 7 21 23 33 48 9 11 12 16 22 24 28 25 15 11 5 6 6 5 9 12 12 11 8 4 4 6 7 6 6
3 1 4 9 9 9 8 8 5 9 7 4 7 7 10 13 21 30 19 20 11 12 13 19 21 22 23 17 9 4 5 10 10 14 14 12 11 7 3 5 5 5 4 4
6 3 1 6 9 11 14 14 5 9 3 5 7 1 5 11 14 20 17 8 6 14 20 13 12 14 16 11 6 2 7 14 15 15 15 14 12 8 5 6 5 4 3 4
5 3 2 5 7 9 7 8 9 5 4 9 5 10 7 6 9 22 16 11 8 14 17 14 12 13 12 9 11 3 9 13 14 14 16 13 12 10 6 7 4 4 2 4
4 5 2 4 5 6 7 10 13 9 9 16 7 22 21 12 11 11 9 5 18 19 17 13 13 12 12 10 12 10 7 9 11 12 11 10 12 12 10 7 6 10 8 7
4 3 2 2 5 6 9 10 7 2 13 7 11 15 24 23 20 10 13 24 20 18 17 15 13 14 15 14 12 8 10 6 11 13 12 11 11 13 15 9 7 9 8 7
7 4 5 2 3 7 8 10 23 15 5 15 19 16 27 31 7 6 16 21 20 18 18 16 13 11 14 19 17 14 11 11 14 15 15 13 12 12 14 12 12 10 7 10
4 4 6 5 5 6 5 18 19 2 1 12 10 7 33 15 17 31 25 17 13 11 15 18 19 14 16 17 17 12 13 14 14 17 13 14 13 11 16 14 15 15 13 10
2 4 3 3 6 8 21 12 4 5 23 6 23 23 20 16 23 29 26 21 15 14 20 19 21 22 23 22 17 12 11 10 12 11 18 15 15 15 14 16 15 17 17 16
4 3 3 2 2 7 11 7 10 7 24 29 27 28 16 11 15 21 20 18 14 12 12 11 14 19 20 20 18 15 15 15 15 15 16 18 17 15 14 14 16 19 20 20
2 0 3 5 6 7 27 27 26 23 6 15 30 35 27 23 19 21 21 18 12 11 8 8 8 7 15 16 16 17 18 17 16 17 20 18 18 18 18 20 20 19 21 20
2 5 4 4 10 21 17 23 35 34 27 12 23 30 31 34 23 24 20 18 17 12 9 6 4 2 7 7 10 15 14 12 10 7 9 12 13 15 16 18 20 23 25 26
2 3 2 2 2 4 10 29 35 44 61 28 20 21 24 23 21 17 16 12 15 14 8 4 7 6 7 6 4 2 1 2 2 3 5 8 11 14 14 17 20 23 23 24
Wind_Direction
266 190 243 243 254 229 155 104 230 265 260 313 269 265 183 184 192 203 65 130 167 191 183 186 186 191 200 211 219 233 244 245 253 254 291 345 11 71 88 103 83 65 115 176
280 232 235 234 252 246 172 137 225 241 256 251 276 278 197 160 185 178 177 169 202 203 187 184 184 192 198 209 222 235 244 251 254 233 260 297 333 46 85 51 51 63 79 84
221 246 226 230 238 264 244 159 187 244 235 286 268 297 86 44 135 179 186 193 204 186 190 184 183 189 196 207 219 232 254 249 242 222 232 243 226 159 74 53 28 25 15 5
230 262 265 257 220 236 254 258 218 240 154 209 165 248 66 153 238 170 194 200 184 182 189 185 182 185 197 206 212 232 247 253 245 224 223 204 199 193 288 354 10 348 11 345
259 256 273 283 262 304 259 289 294 311 314 262 308 89 238 128 251 239 259 260 201 187 179 182 182 186 194 203 210 222 248 254 238 214 216 204 170 173 302 295 58 57 29 355
252 266 271 250 257 234 258 269 310 331 352 359 295 209 222 184 210 256 223 251 173 166 173 181 181 183 183 201 207 204 247 249 227 243 218 195 175 209 250 320 14 34 44 258
294 280 264 276 322 293 274 16 333 349 323 215 300 15 254 226 222 186 176 138 150 155 163 160 179 180 179 193 197 204 242 252 227 234 213 189 184 223 259 321 335 301 155 208
216 288 248 233 208 215 240 170 163 210 204 264 343 271 193 63 108 87 144 154 152 133 125 112 216 175 176 180 201 199 259 239 209 218 195 181 232 242 205 201 178 282 274 285
259 265 283 224 200 192 269 180 222 203 285 100 232 333 159 30 14 356 168 155 147 149 168 177 190 168 172 192 197 197 241 357 180 102 190 214 239 249 276 235 182 272 274 284
246 281 281 306 191 213 185 214 298 335 259 286 49 296 218 52 358 38 2 107 119 137 156 164 164 167 180 182 198 180 221 323 172 204 209 239 255 338 295 184 160 252 273 275
215 161 273 15 183 174 258 265 267 143 142 181 181 245 196 194 120 90 240 289 114 122 140 153 159 167 178 181 168 176 167 308 203 201 220 265 285 11 110 134 182 260 148 96
229 172 251 242 279 248 192 215 186 131 281 130 166 270 148 72 46 145 215 286 125 131 167 158 177 165 170 169 173 199 179 314 220 222 241 283 186 126 126 169 210 146 114 112
310 356 324 329 337 337 190 239 210 193 140 246 171 275 92 90 74 50 291 291 78 109 141 146 165 155 169 188 181 190 139 175 195 197 186 121 129 138 135 158 114 124 135 133
57 90 159 206 226 35 314 267 238 114 125 229 257 120 90 118 136 161 218 74 60 106 116 143 158 156 166 187 180 197 181 174 185 161 147 134 131 119 137 139 109 105 103 97
98 29 1 311 311 322 280 230 282 331 258 186 214 154 163 167 149 208 127 136 129 135 151 137 154 161 168 178 217 222 160 152 159 155 149 140 140 128 120 110 102 91 96 84
338 273 309 292 311 315 310 307 224 228 349 18 124 141 220 201 151 154 135 111 140 167 142 137 170 180 181 188 175 121 148 157 159 164 159 158 156 169 188 145 140 158 168 112
343 26 16 273 300 315 314 275 283 225 192 143 260 224 163 242 159 150 167 175 148 98 129 156 178 196 214 178 163 176 171 169 167 167 173 176 183 187 205 184 172 194 190 159
296 336 343 254 307 268 254 284 284 301 268 192 190 160 172 162 162 192 182 291 140 139 146 154 177 196 202 188 184 175 202 164 161 160 180 194 204 205 199 220 267 215 220 206
254 232 292 174 252 281 314 289 348 355 288 196 154 140 138 140 128 99 143 151 147 147 151 153 170 186 181 188 192 215 227 197 177 179 200 216 219 221 217 231 206 208 231 231
262 204 161 271 277 271 257 330 329 311 355 7 128 149 131 127 136 216 152 157 160 175 182 171 154 161 176 186 192 207 207 213 197 212 218 232 241 234 229 230 225 224 236 234
242 262 202 221 235 253 349 318 315 313 161 55 36 116 148 164 181 158 163 160 183 171 159 162 164 147 170 185 198 202 204 214 207 215 225 242 254 255 242 239 233 233 230 232
65 306 231 257 226 241 354 334 343 49 23 33 181 184 297 350 158 154 157 158 162 152 153 160 162 165 172 186 200 228 204 218 220 216 229 241 252 258 259 254 244 239 238 234
55 129 258 244 202 338 331 334 334 18 50 62 113 165 192 234 167 142 143 134 128 123 139 149 162 176 181 189 189 200 213 222 219 216 223 235 243 248 247 254 250 243 243 239
121 164 10 24 30 328 22 13 344 298 316 82 116 132 164 198 205 147 142 140 132 116 106 101 96 171 206 208 197 199 213 222 224 225 226 237 237 239 238 245 250 253 251 252
199 347 24 277 357 354 331 340 336 339 292 173 143 164 155 193 176 155 150 143 135 117 113 88 43 125 160 178 203 219 225 239 247 247 237 249 256 257 253 261 256 259 257 246
46 123 89 267 148 223 301 325 321 313 325 226 195 153 148 161 154 155 141 150 135 135 127 86 85 78 77 89 67 73 144 210 223 210 226 243 253 262 257 255 258 258 251 249